RH
32 32 27 26 28 26 24 20 23 26 26 33 35 33 32 36 47 47 45 53 58 57 63 62 64 68 77 70 60 62 65 72 77 68 71 72 70 69 68 70 64 76 75 62
29 32 28 28 27 25 24 18 18 24 26 29 33 33 33 38 40 45 48 52 53 58 56 65 66 68 74 67 64 63 64 74 78 75 77 76 79 77 72 68 67 75 74 65
29 31 29 29 27 26 25 19 22 23 26 27 29 37 33 33 33 37 41 50 58 62 59 58 72 67 67 69 72 74 64 68 73 80 76 72 77 77 77 67 73 71 67 58
32 36 32 29 28 34 28 27 25 28 32 27 33 34 34 30 29 30 31 40 56 62 69 63 71 71 75 74 74 82 69 73 71 72 72 70 70 72 78 70 65 65 63 60
28 29 35 29 31 39 30 31 30 28 29 29 33 35 33 35 34 31 29 34 42 57 75 72 72 71 73 74 78 80 77 73 72 73 71 71 73 71 72 69 69 66 62 62
23 26 26 30 31 35 37 38 34 29 28 28 35 34 33 37 34 37 34 33 31 43 54 63 65 64 65 64 70 73 77 81 78 76 70 73 74 68 67 70 68 65 70 60
18 20 22 30 34 35 41 41 37 31 30 30 36 35 33 37 38 38 39 41 40 36 36 39 53 67 68 66 68 67 75 84 86 84 78 84 70 65 66 65 65 64 62 59
11 15 18 23 32 33 44 43 41 34 34 30 31 33 36 35 31 31 38 43 41 37 31 37 52 55 59 67 70 73 76 86 94 94 93 73 68 63 69 68 67 60 62 61
12 12 22 19 31 37 44 46 44 37 34 33 32 33 35 36 32 30 33 36 40 33 33 45 49 50 55 65 63 71 79 88 95 97 97 90 72 62 66 62 66 61 64 65
16 15 23 23 32 38 41 46 43 43 35 34 33 35 38 38 37 44 40 31 29 32 37 42 46 49 51 60 65 77 88 95 95 92 96 80 72 66 67 75 72 64 66 68
28 25 31 32 38 41 41 42 44 45 42 35 35 35 38 42 43 46 42 41 34 36 39 44 43 50 52 55 58 71 84 96 96 91 98 92 69 73 76 73 68 69 69 72
41 42 43 43 41 48 46 44 43 45 46 38 36 39 41 41 41 47 46 43 46 45 43 43 54 65 68 65 66 67 83 89 95 89 80 77 78 80 79 74 72 72 75 75
41 45 49 48 45 44 47 47 48 48 47 43 38 39 38 38 37 45 48 45 51 52 50 54 60 68 68 70 63 63 64 68 89 89 75 81 83 82 84 80 76 76 75 76
49 50 49 47 50 49 57 56 56 60 60 56 43 42 40 41 44 46 53 58 63 66 68 76 76 75 63 62 58 56 55 72 84 82 79 84 86 85 77 77 80 78 81 80
57 58 55 52 49 52 54 55 56 61 67 61 49 44 47 46 51 49 53 54 59 63 68 77 78 66 69 66 62 46 67 72 79 82 85 91 92 88 84 91 88 85 86 86
64 63 60 58 55 59 59 58 59 63 68 66 59 48 49 56 54 55 56 59 60 65 66 72 69 71 73 72 63 63 68 79 83 86 88 96 93 94 89 96 92 93 89 85
70 67 64 61 58 62 62 65 67 67 69 68 61 54 56 62 60 58 62 60 55 67 72 76 83 91 91 82 74 80 84 86 93 97 95 95 97 96 97 98 98 95 91 90
74 70 65 62 60 63 66 66 67 68 64 65 68 65 75 79 74 73 69 67 61 59 54 59 88 94 98 95 90 90 91 94 97 97 97 98 98 98 98 98 93 91 91 91
72 69 64 61 65 65 66 64 62 60 63 71 78 89 88 87 88 86 82 75 74 69 61 62 83 94 96 96 95 88 87 97 98 98 98 98 98 97 95 91 90 88 89 91
70 64 62 63 67 64 63 62 62 63 71 77 87 95 98 93 91 86 86 85 76 72 61 68 79 92 90 92 94 96 97 96 97 96 95 97 94 89 85 85 87 89 89 91
72 66 64 66 70 66 67 67 70 77 81 87 89 92 95 90 91 91 89 77 77 77 70 84 81 87 97 98 98 98 96 97 98 98 98 96 91 82 74 71 77 81 86 91
79 77 76 72 70 70 66 70 76 79 87 94 96 93 91 86 82 84 80 82 87 88 82 79 78 96 98 98 98 98 98 98 96 97 97 87 81 77 79 78 76 76 82 88
76 75 74 72 66 61 65 72 75 84 87 91 85 80 84 85 87 88 89 90 89 92 91 78 85 98 98 97 94 92 89 85 84 86 84 79 73 73 79 78 74 74 82 90
83 82 74 62 58 60 60 68 77 74 76 77 77 80 89 84 94 93 96 91 90 96 94 95 96 94 89 89 85 79 79 84 79 79 78 75 76 72 75 79 70 74 86 94
87 80 66 53 48 50 55 63 65 73 76 79 83 77 81 91 95 97 98 98 94 88 81 81 78 79 79 74 79 79 70 79 79 75 74 70 70 74 72 74 72 87 93 96
86 65 52 47 54 51 53 58 63 75 78 85 84 90 96 94 98 98 95 97 94 88 94 85 79 77 73 74 75 73 69 73 77 75 70 66 69 71 70 72 82 93 96 97
68 49 44 52 55 58 52 60 72 81 85 92 90 97 94 96 96 93 98 97 97 98 98 97 88 77 74 76 68 66 65 64 68 68 65 67 67 64 70 82 91 96 97 97